Baia Mare, Romania

2:17 PM EEST on April 22, 2018 (GMT +0300)
Tautii Magheraus

Weather History for LRBM - March, 2013

Change the Weather History Date:

Sunday, March 17, 2013

  Actual Average Record
Temperature  
Mean Temperature 22 °F -  
Max Temperature 33 °F - - ()
Min Temperature 10 °F - - ()
Degree Days  
Heating Degree Days 44    
Moisture  
Dew Point 14 °F    
Average Humidity 69    
Maximum Humidity 93    
Minimum Humidity 41    
Precipitation  
Precipitation 0.00 in - - ()
Sea Level Pressure  
Sea Level Pressure 30.15 in    
Wind  
Wind Speed 3 mph ()    
Max Wind Speed 7 mph    
Max Gust Speed -    
Visibility 6.2 miles    
Events      
T = Trace of Precipitation, MM = Missing Value Source: Averaged Metar Reports

Daily Weather History Graph

Daily Weather History Graph

Search for Another Location

Airport or City:

Astronomy

Mar. 17, 2013 Rise Set
Actual Time 6:35 AM EET 6:34 PM EET
Civil Twilight 6:04 AM EET 7:05 PM EET
Nautical Twilight 5:28 AM EET 7:41 PM EET
Astronomical Twilight 4:51 AM EET 8:18 PM EET
Moon 9:10 AM EET (3/17) No Moon Set
Length of Visible Light 13h 00m
Length of Day
11h 59m
Waxing Crescent, 29% of the Moon is Illuminated
Mar 17
Waxing Crescent
Mar 19
First Quarter
Mar 27
Full
Apr 3
Last Quarter
Apr 10
New

Hourly Weather History & Observations

Time (EET) Temp. Windchill Dew Point Humidity Pressure Visibility Wind Dir Wind Speed Gust Speed Precip Events Conditions
12:00 AM 17.6 °F - 14.0 °F 86% 30.12 in 6.2 mi Calm Calm - N/A   Scattered Clouds
1:00 AM 15.8 °F 8.6 °F 14.0 °F 93% 30.15 in 6.2 mi NNE 4.6 mph - N/A   Scattered Clouds
2:00 AM 14.0 °F - 12.2 °F 93% 30.15 in 6.2 mi NE 2.3 mph - N/A   Scattered Clouds
3:00 AM 14.0 °F - 12.2 °F 93% 30.15 in 6.2 mi NE 2.3 mph - N/A   Scattered Clouds
4:00 AM 14.0 °F - 10.4 °F 86% 30.15 in 6.2 mi NE 2.3 mph - N/A   Scattered Clouds
5:00 AM 14.0 °F 3.9 °F 10.4 °F 86% 30.15 in 6.2 mi NE 6.9 mph - N/A   Scattered Clouds
5:30 AM 10.4 °F 2.2 °F 8.6 °F 92% 30.15 in 6.2 mi ENE 4.6 mph - N/A   Scattered Clouds
6:00 AM 14.0 °F 3.9 °F 10.4 °F 86% 30.15 in 6.2 mi NE 6.9 mph - N/A   Scattered Clouds
6:30 AM 12.2 °F 4.3 °F 10.4 °F 92% 30.18 in 6.2 mi NE 4.6 mph - N/A   Scattered Clouds
7:00 AM 10.4 °F 2.2 °F 6.8 °F 85% 30.18 in - East 4.6 mph - N/A   Clear
7:30 AM 14.0 °F - 10.4 °F 86% 30.18 in - Variable 2.3 mph - N/A   Clear
8:00 AM 14.0 °F 6.5 °F 10.4 °F 86% 30.18 in - East 4.6 mph - N/A   Clear
8:30 AM 15.8 °F - 12.2 °F 86% 30.18 in - East 2.3 mph - N/A   Clear
9:00 AM 17.6 °F - 12.2 °F 79% 30.18 in - East 2.3 mph - N/A   Clear
9:30 AM 19.4 °F 12.8 °F 14.0 °F 80% 30.18 in - East 4.6 mph - N/A   Clear
10:00 AM 23.0 °F - 15.8 °F 74% 30.18 in - ESE 2.3 mph - N/A   Clear
10:30 AM 26.6 °F - 17.6 °F 69% 30.18 in - Variable 2.3 mph - N/A   Clear
11:00 AM 26.6 °F - 17.6 °F 69% 30.18 in - Variable 2.3 mph - N/A   Clear
11:30 AM 28.4 °F - 19.4 °F 69% 30.18 in - Variable 2.3 mph - N/A   Clear
12:00 PM 28.4 °F - 19.4 °F 69% 30.18 in - Variable 2.3 mph - N/A   Clear
12:30 PM 28.4 °F 23.3 °F 17.6 °F 64% 30.18 in - SW 4.6 mph - N/A   Clear
1:00 PM 30.2 °F 25.4 °F 15.8 °F 55% 30.18 in - SSW 4.6 mph - N/A   Clear
1:30 PM 32.0 °F 27.5 °F 12.2 °F 44% 30.18 in - SSW 4.6 mph - N/A   Clear
2:00 PM 32.0 °F - 15.8 °F 51% 30.15 in 6.2 mi Variable 2.3 mph - N/A   Partly Cloudy
2:30 PM 33.8 °F - 14.0 °F 44% 30.15 in 6.2 mi Calm Calm - N/A   Partly Cloudy
3:00 PM 33.8 °F - 14.0 °F 44% 30.15 in - Variable 2.3 mph - N/A   Clear
3:30 PM 33.8 °F - 15.8 °F 48% 30.15 in - Variable 2.3 mph - N/A   Clear
4:00 PM 33.8 °F - 12.2 °F 41% 30.12 in - Variable 2.3 mph - N/A   Clear
4:30 PM 32.0 °F - 12.2 °F 44% 30.12 in - Variable 2.3 mph - N/A   Clear
5:00 PM 32.0 °F - 12.2 °F 44% 30.12 in - East 2.3 mph - N/A   Clear
5:30 PM 32.0 °F - 12.2 °F 44% 30.12 in - Calm Calm - N/A   Clear
6:00 PM 32.0 °F - 12.2 °F 44% 30.12 in - Variable 2.3 mph - N/A   Clear
6:30 PM 30.2 °F - 14.0 °F 51% 30.12 in - ENE 2.3 mph - N/A   Clear
7:00 PM 28.4 °F - 15.8 °F 59% 30.12 in - Calm Calm - N/A   Clear
7:30 PM 24.8 °F - 17.6 °F 74% 30.12 in - Calm Calm - N/A   Clear
8:00 PM 24.8 °F - 17.6 °F 74% 30.15 in - NNE 2.3 mph - N/A   Clear
8:30 PM 26.6 °F 19.1 °F 17.6 °F 69% 30.15 in - NE 6.9 mph - N/A   Clear
9:00 PM 26.6 °F 19.1 °F 15.8 °F 64% 30.12 in - NNE 6.9 mph - N/A   Clear
9:30 PM 24.8 °F 16.9 °F 15.8 °F 69% 30.12 in - NE 6.9 mph - N/A   Clear
10:00 PM 24.8 °F 19.1 °F 15.8 °F 69% 30.12 in - ENE 4.6 mph - N/A   Clear
10:30 PM 23.0 °F 17.0 °F 15.8 °F 74% 30.12 in - ENE 4.6 mph - N/A   Clear
11:00 PM 23.0 °F 14.7 °F 15.8 °F 74% 30.12 in 6.2 mi ENE 6.9 mph - N/A   Scattered Clouds